Flag for Mexico Weather past 2 weeks in Fresnillo, Zacatecas, Mexico

Now
48 °F

Passing clouds.


Feels Like: 43 °F
Forecast: 45 / 60 °F
Wind: 12 mph from West

Location: Zacatecas Airport

Current Time: Jan 31, 2015 at 10:32:09 PM

Latest Report: Jan 31, 2015 at 9:47 PM


Visibility: 10 mi

Pressure: 30.18 "Hg

Humidity: 66%

Dew point: 37 °F

Location of FresnilloLocation

Historic Weather in Fresnillo — Graph

°F

Fresnillo temperature yesterday

Maximum temperature yesterday: 66 °F (at 2:52 PM)
Minimum temperature yesterday: 43 °F (at 7:51 AM)
Average temperature yesterday: 55 °F

Past Weeks' High & Low Weather Summary

 TemperatureHumidityPressure
High75 °F (Jan 28, 3:05 PM)81% (Jan 20, 5:46 AM)30.44 "Hg (Jan 20, 5:46 AM)
Low34 °F (Jan 25, 5:46 AM)12% (Jan 23, 3:50 PM)30.09 "Hg (Jan 21, 3:46 PM)
Average56 °F45%30.27 "Hg
* Reported Jan 16 11:50 PM — Jan 31 8:50 PM, Fresnillo, Weather by CustomWeather, © 2014

Note: Actual official high and low records may vary slightly from our data, if they occured in-between our weather recording intervals... More about our weather records

Advertising

Fresnillo weather history for previous 24 hours

 ConditionsComfort  
Time TempWeatherWind HumidityBarometerVisibility
8:50 PM
Jan 31
52 °FClear.12 mph62%30.17 "Hg10 mi
6:51 PM48 °FPassing clouds.12 mph62%30.12 "Hg10 mi
5:48 PM52 °FPartly sunny.29 mph58%30.12 "Hg10 mi
4:48 PM52 °FPartly sunny.23 mph54%30.12 "Hg10 mi
2:50 PM66 °FPartly sunny.35 mph30%30.10 "Hg10 mi
1:57 PM68 °FPartly sunny.26 mph28%30.10 "Hg10 mi
12:56 PM66 °FPartly sunny.31 mph32%30.15 "Hg10 mi
11:48 AM64 °FPartly sunny.25 mph46%30.17 "Hg10 mi
10:58 AM63 °FPartly sunny.23 mph42%30.17 "Hg10 mi
9:58 AM57 °FPartly sunny.21 mph63%30.18 "Hg8 mi
8:59 AM54 °FScattered clouds.17 mph72%30.17 "Hg8 mi
8:06 AM45 °FScattered clouds.9 mph66%30.17 "Hg8 mi
7:00 AM45 °FPassing clouds.7 mph71%30.15 "Hg10 mi
5:40 AM46 °FPassing clouds.12 mph57%30.15 "Hg10 mi
3:56 AM43 °FClear.7 mph61%30.16 "Hg10 mi
1:51 AM46 °FClear.7 mph57%30.17 "Hg10 mi
12:50 AM46 °FClear.No wind57%30.19 "Hg10 mi
10:49 PM
Jan 30
50 °FClear.12 mph50%30.22 "Hg10 mi
Weather by CustomWeather, © 2014

See weather overviewHow to use our weather pages